• In Belarus
  • List of Countries
  • For 7 days
  • Water Temperature
  • Satellite Maps
  • Weather Map
  • Weather Widgets
  • user-avatar
    Login

    Hourly Weather Ligota

    Today, 22 October, Monday

    Time Temperature Precipitation Wind Pressure Humidity
    00:00 +6°C° 0 mm 2 mps 761 mmHg 82%
    01:00 +6°C° 0 mm 2 mps 761 mmHg 83%
    02:00 +6°C° 0 mm 2 mps 761 mmHg 83%
    03:00 +5°C° 0 mm 2 mps 761 mmHg 84%
    04:00 +5°C° 0 mm 2 mps 761 mmHg 84%
    05:00 +5°C° 0 mm 2 mps 761 mmHg 85%
    06:00 +5°C° 0 mm 2 mps 760 mmHg 85%
    07:00 +5°C° 0 mm 2 mps 760 mmHg 86%
    08:00 +7°C° 0 mm 2 mps 760 mmHg 78%
    09:00 +9°C° 0 mm 2 mps 760 mmHg 70%
    10:00 +11°C° 0 mm 3 mps 760 mmHg 63%
    11:00 +12°C° 0 mm 3 mps 760 mmHg 59%
    12:00 +13°C° 0 mm 3 mps 759 mmHg 55%
    13:00 +14°C° 0 mm 4 mps 759 mmHg 51%
    14:00 +13°C° 0.1 mm 4 mps 759 mmHg 58%
    15:00 +12°C° 0.1 mm 4 mps 759 mmHg 65%
    16:00 +12°C° 0.1 mm 4 mps 759 mmHg 72%
    17:00 +11°C° 0.2 mm 4 mps 759 mmHg 75%
    18:00 +10°C° 0.2 mm 4 mps 759 mmHg 78%
    19:00 +10°C° 0.2 mm 4 mps 760 mmHg 81%
    20:00 +8°C° 0 mm 4 mps 760 mmHg 82%
    21:00 +8°C° 0 mm 3 mps 760 mmHg 82%
    22:00 +7°C° 0 mm 3 mps 761 mmHg 83%
    23:00 +7°C° 0 mm 3 mps 760 mmHg 84%

    Tomorrow, 23 October, Tuesday

    Time Temperature Precipitation Wind Pressure Humidity
    00:00 +5°C° 0 mm 3 mps 760 mmHg 86%
    01:00 +5°C° 0 mm 3 mps 760 mmHg 87%
    02:00 +5°C° 0 mm 3 mps 760 mmHg 85%
    03:00 +5°C° 0 mm 3 mps 759 mmHg 84%
    04:00 +4°C° 0 mm 4 mps 759 mmHg 83%
    05:00 +5°C° 0 mm 4 mps 758 mmHg 81%
    06:00 +5°C° 0 mm 5 mps 757 mmHg 80%
    07:00 +5°C° 0 mm 5 mps 757 mmHg 78%
    08:00 +5°C° 0.2 mm 6 mps 756 mmHg 76%
    09:00 +5°C° 0.2 mm 8 mps 755 mmHg 73%
    10:00 +6°C° 0.2 mm 9 mps 754 mmHg 71%
    11:00 +6°C° 0.7 mm 9 mps 753 mmHg 73%
    12:00 +6°C° 0.7 mm 10 mps 751 mmHg 74%
    13:00 +6°C° 0.7 mm 10 mps 750 mmHg 76%
    14:00 +7°C° 0.3 mm 10 mps 749 mmHg 77%
    15:00 +7°C° 0.3 mm 11 mps 749 mmHg 77%
    16:00 +8°C° 0.3 mm 11 mps 748 mmHg 78%
    17:00 +8°C° 0.6 mm 11 mps 747 mmHg 79%
    18:00 +9°C° 0.6 mm 11 mps 746 mmHg 80%
    19:00 +9°C° 0.6 mm 11 mps 746 mmHg 81%
    20:00 +11°C° 1 mm 11 mps 745 mmHg 82%
    21:00 +11°C° 1 mm 11 mps 745 mmHg 82%
    22:00 +11°C° 1 mm 11 mps 744 mmHg 82%
    23:00 +11°C° 0.9 mm 11 mps 744 mmHg 82%

    Day after tomorrow, 24 October, Wednesday

    Time Temperature Precipitation Wind Pressure Humidity
    00:00 +11°C° 0.9 mm 11 mps 743 mmHg 82%
    01:00 +11°C° 0.9 mm 11 mps 743 mmHg 82%
    02:00 +9°C° 0.8 mm 11 mps 743 mmHg 77%
    03:00 +8°C° 0.8 mm 11 mps 743 mmHg 73%
    04:00 +8°C° 0.8 mm 12 mps 744 mmHg 69%
    05:00 +7°C° 0.1 mm 11 mps 744 mmHg 68%
    06:00 +6°C° 0.1 mm 9 mps 745 mmHg 66%
    07:00 +5°C° 0.1 mm 8 mps 746 mmHg 65%
    08:00 +6°C° 0 mm 9 mps 747 mmHg 61%
    09:00 +6°C° 0 mm 9 mps 748 mmHg 58%
    10:00 +7°C° 0 mm 10 mps 748 mmHg 54%
    11:00 +7°C° 0 mm 10 mps 749 mmHg 50%
    12:00 +7°C° 0 mm 9 mps 749 mmHg 46%
    13:00 +8°C° 0 mm 9 mps 750 mmHg 43%
    14:00 +7°C° 0 mm 8 mps 750 mmHg 45%
    15:00 +8°C° 0 mm 7 mps 750 mmHg 47%
    16:00 +8°C° 0 mm 6 mps 751 mmHg 49%
    17:00 +7°C° 0 mm 6 mps 751 mmHg 52%
    18:00 +7°C° 0 mm 5 mps 752 mmHg 55%
    19:00 +6°C° 0 mm 5 mps 752 mmHg 58%
    20:00 +6°C° 0 mm 5 mps 752 mmHg 60%
    21:00 +6°C° 0 mm 4 mps 752 mmHg 63%
    22:00 +6°C° 0 mm 4 mps 752 mmHg 65%
    23:00 +6°C° 0 mm 4 mps 752 mmHg 68%

    25 October, Thursday

    Time Temperature Precipitation Wind Pressure Humidity
    00:00 +6°C° 0 mm 4 mps 752 mmHg 70%
    01:00 +6°C° 0 mm 4 mps 751 mmHg 73%
    02:00 +7°C° 0.3 mm 4 mps 751 mmHg 78%
    03:00 +7°C° 0.3 mm 4 mps 750 mmHg 84%
    04:00 +8°C° 0.3 mm 5 mps 749 mmHg 89%
    05:00 +9°C° 0.2 mm 6 mps 749 mmHg 87%
    06:00 +9°C° 0.2 mm 7 mps 748 mmHg 85%
    07:00 +10°C° 0.2 mm 8 mps 748 mmHg 82%
    08:00 +10°C° 0.1 mm 8 mps 748 mmHg 81%
    09:00 +10°C° 0.1 mm 8 mps 748 mmHg 80%
    10:00 +10°C° 0.1 mm 9 mps 748 mmHg 79%
    11:00 +10°C° 0.1 mm 9 mps 748 mmHg 78%
    12:00 +10°C° 0.1 mm 9 mps 748 mmHg 78%
    13:00 +10°C° 0.1 mm 9 mps 748 mmHg 77%
    14:00 +10°C° 0.1 mm 8 mps 748 mmHg 76%
    15:00 +10°C° 0.1 mm 8 mps 748 mmHg 75%
    16:00 +10°C° 0.1 mm 7 mps 748 mmHg 74%
    17:00 +9°C° 0 mm 6 mps 749 mmHg 75%
    18:00 +9°C° 0 mm 5 mps 749 mmHg 76%
    19:00 +8°C° 0 mm 4 mps 749 mmHg 77%
    20:00 +8°C° 0 mm 4 mps 749 mmHg 77%
    21:00 +8°C° 0 mm 4 mps 750 mmHg 77%
    22:00 +8°C° 0 mm 4 mps 750 mmHg 77%
    23:00 +7°C° 0 mm 4 mps 750 mmHg 78%

    26 October, Friday

    Time Temperature Precipitation Wind Pressure Humidity
    00:00 +8°C° 0 mm 3 mps 750 mmHg 79%
    01:00 +7°C° 0 mm 3 mps 750 mmHg 81%
    02:00 +7°C° 0 mm 3 mps 749 mmHg 83%
    03:00 +7°C° 0 mm 3 mps 749 mmHg 86%
    04:00 +7°C° 0 mm 3 mps 749 mmHg 88%
    05:00 +7°C° 0 mm 3 mps 749 mmHg 90%
    06:00 +7°C° 0 mm 2 mps 749 mmHg 92%
    07:00 +6°C° 0 mm 2 mps 749 mmHg 94%
    08:00 +8°C° 0 mm 2 mps 749 mmHg 90%
    09:00 +9°C° 0 mm 2 mps 749 mmHg 85%
    10:00 +10°C° 0 mm 3 mps 748 mmHg 80%
    11:00 +11°C° 0 mm 3 mps 748 mmHg 75%
    12:00 +13°C° 0 mm 3 mps 747 mmHg 70%
    13:00 +14°C° 0 mm 4 mps 747 mmHg 64%
    14:00 +13°C° 0 mm 3 mps 746 mmHg 66%
    15:00 +13°C° 0 mm 3 mps 746 mmHg 68%
    16:00 +12°C° 0 mm 3 mps 745 mmHg 69%
    17:00 +12°C° 0 mm 3 mps 745 mmHg 72%
    18:00 +11°C° 0 mm 3 mps 745 mmHg 74%
    19:00 +10°C° 0 mm 3 mps 744 mmHg 77%
    20:00 +10°C° 0 mm 3 mps 744 mmHg 77%
    21:00 +10°C° 0 mm 3 mps 744 mmHg 76%
    22:00 +10°C° 0 mm 3 mps 744 mmHg 76%
    23:00 +10°C° 0 mm 3 mps 743 mmHg 77%

    27 October, Saturday

    Time Temperature Precipitation Wind Pressure Humidity
    00:00 +10°C° 0 mm 3 mps 743 mmHg 78%
    01:00 +10°C° 0 mm 2 mps 743 mmHg 78%
    02:00 +9°C° 0 mm 2 mps 743 mmHg 81%
    03:00 +9°C° 0 mm 2 mps 743 mmHg 84%
    04:00 +8°C° 0 mm 2 mps 743 mmHg 86%
    05:00 +8°C° 0 mm 2 mps 742 mmHg 88%
    06:00 +9°C° 0 mm 1 mps 742 mmHg 89%
    07:00 +8°C° 0 mm 1 mps 742 mmHg 90%
    08:00 +9°C° 0 mm 1 mps 742 mmHg 87%
    09:00 +10°C° 0 mm 1 mps 742 mmHg 84%
    10:00 +10°C° 0 mm 0 mps 742 mmHg 81%
    11:00 +10°C° 0.4 mm 1 mps 741 mmHg 82%
    12:00 +10°C° 0.4 mm 1 mps 741 mmHg 83%
    13:00 +10°C° 0.4 mm 1 mps 741 mmHg 84%
    14:00 +9°C° 0.9 mm 2 mps 740 mmHg 86%
    15:00 +9°C° 0.9 mm 2 mps 740 mmHg 89%
    16:00 +8°C° 0.9 mm 2 mps 740 mmHg 92%
    17:00 +8°C° 0.5 mm 3 mps 740 mmHg 92%
    18:00 +8°C° 0.5 mm 3 mps 740 mmHg 92%
    19:00 +8°C° 0.5 mm 3 mps 740 mmHg 92%
    20:00 +7°C° 0.6 mm 3 mps 740 mmHg 92%
    21:00 +7°C° 0.6 mm 3 mps 739 mmHg 92%
    22:00 +6°C° 0.6 mm 4 mps 739 mmHg 92%
    23:00 +6°C° 0.6 mm 4 mps 739 mmHg 91%

    28 October, Sunday

    Time Temperature Precipitation Wind Pressure Humidity
    00:00 +6°C° 0.6 mm 4 mps 739 mmHg 91%
    01:00 +5°C° 0.6 mm 4 mps 739 mmHg 90%
    02:00 +5°C° 0.6 mm 4 mps 740 mmHg 90%
    03:00 +5°C° 0.6 mm 4 mps 740 mmHg 90%
    04:00 +5°C° 0.6 mm 4 mps 740 mmHg 90%
    05:00 +5°C° 0.3 mm 4 mps 741 mmHg 90%
    06:00 +5°C° 0.3 mm 3 mps 742 mmHg 90%
    07:00 +5°C° 0.3 mm 3 mps 742 mmHg 90%
    08:00 +5°C° 0.2 mm 3 mps 743 mmHg 87%
    09:00 +7°C° 0.2 mm 3 mps 744 mmHg 83%
    10:00 +7°C° 0.2 mm 3 mps 745 mmHg 80%
    11:00 +8°C° 0 mm 3 mps 745 mmHg 75%
    12:00 +8°C° 0 mm 3 mps 746 mmHg 70%
    13:00 +9°C° 0 mm 2 mps 746 mmHg 64%
    14:00 +9°C° 0 mm 2 mps 747 mmHg 66%
    15:00 +8°C° 0 mm 2 mps 747 mmHg 68%
    16:00 +9°C° 0 mm 1 mps 747 mmHg 70%
    17:00 +8°C° 0 mm 1 mps 748 mmHg 73%
    18:00 +7°C° 0 mm 2 mps 748 mmHg 77%
    19:00 +6°C° 0 mm 2 mps 749 mmHg 80%
    20:00 +5°C° 0 mm 2 mps 749 mmHg 82%
    21:00 +5°C° 0 mm 2 mps 750 mmHg 84%
    22:00 +5°C° 0 mm 2 mps 750 mmHg 85%
    23:00 +5°C° 0 mm 2 mps 750 mmHg 86%
    Show more